Simultaneous Nadir Overpasses (SNOs) Predictions

Prediction of SNOs between GOES-16 and TERRA Satellite Orbit:

Table of predicted SNOs for the next 14.0 days since TLE Epoch: 12/10/2022
Index Date Time (GOES-16) GOES-16 Lat,Lon TERRA Lat,Lon Distance(km) Time Diff (sec)
1 12/10/2022 15:08:48 -0.04, -75.20 -0.22, -74.41 91.05 80
2 12/11/2022 03:31:57 0.04, -75.19 -0.84, -79.38 476.48 80
3 12/13/2022 03:16:14 0.03, -75.19 -0.03, -75.58 43.52 80
4 12/15/2022 02:57:50 0.03, -75.21 0.74, -71.77 390.37 80
5 12/15/2022 15:20:52 -0.03, -75.24 0.27, -76.72 168.82 80
6 12/17/2022 15:02:28 -0.03, -75.26 -0.51, -72.92 265.93 80
7 12/18/2022 03:25:37 0.02, -75.25 -0.53, -77.89 300.82 80
8 12/20/2022 03:07:13 0.03, -75.27 0.27, -74.09 134.27 80
9 12/20/2022 15:27:33 -0.02, -75.30 0.79, -79.03 424.94 80
10 12/22/2022 15:14:30 -0.02, -75.32 -0.02, -75.23 10.50 80
